Location: Centerville
(32.8776°N, 96.6203°W)
Time: 00:42:52
(UTC+00:00)

Cosmos 1741 Rocket - Pass Details

Date: 17 June 2021
Orbit: 761 x 783 km, 74.0° (Epoch: 01 August)

Event Time Altitude Azimuth Distance (km) Brightness Sun altitude
Rises 04:21:06 0° 339° (NNW) 3,243 8.5 -26.2°
Reaches altitude 10° 04:23:30 10° 336° (NNW) 2,317 7.5 -26.4°
Maximum altitude 04:28:41 64° 256° (WSW) 856 4.2 -27.0°
Enters shadow 04:28:53 63° 244° (WSW) 859 4.1 -27.0°
